User: anonymous   Login
Location: Unspecified
(0.0000°N, 0.0000°E)
Time: 13:53:13
(UTC+02:00)
Language:

Cosmos 1626 Rocket - Orbit

View from above orbital plane
View from above orbital plane
View from above satellite
View from above satellite

Ground track
Ground track

The orbit data is extracted from the following two-line orbital elements,

1 15495U 85009B   15117.80093223  .00000405  00000-0  46149-4 0  9995
2 15495 082.5269 199.2614 0020926 031.6586 328.5882 14.83539884634101
Epoch (UTC): 27 April 2015 19:13:20
Eccentricity: 0.0020926
inclination: 82.5269°
perigee height: 603 km
apogee height: 633 km
right ascension of ascending node: 199.2614°
argument of perigee: 31.6586°
revolutions per day: 14.83539884
mean anomaly at epoch: 328.5882°
orbit number at epoch: 63410

The dashed part of the orbit path shows where the satellite is in the earth's shadow,  

DLR